Weather History for Jackson, WY

Change the Weather History Date:

Monday, March 18, 2013

  Actual Average Record
Temperature  
Mean Temperature 20 °F -  
Max Temperature 30 °F 38 °F 53 °F (2007)
Min Temperature 10 °F 15 °F -25 °F (1965)
Degree Days  
Heating Degree Days 45    
Moisture  
Dew Point 14 °F    
Average Humidity 77    
Maximum Humidity 100    
Minimum Humidity 51    
Precipitation  
Precipitation 0.00 in - - ()
Sea Level Pressure  
Sea Level Pressure 29.90 in    
Wind  
Wind Speed 6 mph (South)    
Max Wind Speed 20 mph    
Max Gust Speed 31 mph    
Visibility 8 miles    
Events Snow    
Averages and records for this station are not official NWS values.
T = Trace of Precipitation, MM = Missing Value Source: NWS Daily Summary

Daily Weather History Graph

Daily Weather History Graph

Search for Another Location

Airport:

Trip Planner

Search our weather history database for the weather conditions in past years. The results will help you decide how hot, cold, wet, or windy it might be!

Date:

Astronomy

Mar. 18, 2013 Rise Set
Actual Time 7:29 AM MDT 7:33 PM MDT
Civil Twilight 7:00 AM MDT 8:01 PM MDT
Nautical Twilight 6:27 AM MDT 8:35 PM MDT
Astronomical Twilight 5:53 AM MDT 9:09 PM MDT
Moon 11:21 AM MDT (3/18) 1:45 AM MDT (3/18)
Length of Visible Light 13h 01m
Length of Day
12h 04m
Waxing Crescent, 41% of the Moon is Illuminated
Mar 18
Waxing Crescent
Mar 19
First Quarter
Mar 27
Full
Apr 2
Last Quarter
Apr 10
New

Hourly Weather History & Observations

Time (MDT) Temp. Windchill Dew Point Humidity Pressure Visibility Wind Dir Wind Speed Gust Speed Precip Events Conditions
12:35 AM 21.2 °F - 15.8 °F 80% 29.89 in 10.0 mi Calm Calm - N/A   Mostly Cloudy
12:55 AM 19.4 °F - 15.8 °F 86% 29.89 in 10.0 mi Calm Calm - N/A   Mostly Cloudy
1:15 AM 17.6 °F 10.7 °F 12.2 °F 79% 29.89 in 10.0 mi NE 4.6 mph - N/A   Mostly Cloudy
1:35 AM 15.8 °F 10.2 °F 12.2 °F 86% 29.89 in 10.0 mi East 3.5 mph - N/A   Partly Cloudy
1:55 AM 14.0 °F 8.2 °F 10.4 °F 86% 29.90 in 10.0 mi NE 3.5 mph - N/A   Partly Cloudy
2:15 AM 17.6 °F 10.7 °F 12.2 °F 79% 29.90 in 10.0 mi North 4.6 mph - N/A   Partly Cloudy
2:35 AM 15.8 °F 10.2 °F 12.2 °F 86% 29.90 in 10.0 mi NNW 3.5 mph - N/A   Clear
2:55 AM 12.2 °F 4.3 °F 10.4 °F 92% 29.91 in 10.0 mi East 4.6 mph - N/A   Scattered Clouds
3:35 AM 10.4 °F 4.0 °F 8.6 °F 92% 29.91 in 10.0 mi NNE 3.5 mph - N/A   Mostly Cloudy
3:55 AM 12.2 °F - 10.4 °F 92% 29.90 in 10.0 mi Calm Calm - N/A   Partly Cloudy
4:15 AM 10.4 °F 4.0 °F 10.4 °F 100% 29.91 in 10.0 mi ENE 3.5 mph - N/A   Clear
4:35 AM 12.2 °F - 10.4 °F 92% 29.90 in 10.0 mi Calm Calm - N/A   Mostly Cloudy
4:55 AM 10.4 °F 2.2 °F 10.4 °F 100% 29.90 in 10.0 mi North 4.6 mph - N/A   Mostly Cloudy
5:35 AM 10.4 °F 0.8 °F 10.4 °F 100% 29.90 in 10.0 mi ENE 5.8 mph - N/A   Overcast
5:55 AM 14.0 °F 6.5 °F 10.4 °F 86% 29.90 in 10.0 mi East 4.6 mph - N/A   Overcast
6:15 AM 12.2 °F - 10.4 °F 92% 29.90 in 10.0 mi Calm Calm - N/A   Overcast
6:36 AM 12.2 °F 2.9 °F 8.6 °F 85% 29.90 in 10.0 mi NW 5.8 mph - N/A   Overcast
6:53 AM 10.4 °F - 8.6 °F 92% 29.90 in 10.0 mi Calm Calm - N/A   Mostly Cloudy
6:55 AM 10.4 °F - 8.6 °F 92% 29.90 in 10.0 mi Calm Calm - N/A   Overcast
7:53 AM 15.8 °F 7.2 °F 10.4 °F 79% 29.92 in 10.0 mi South 5.8 mph - N/A   Mostly Cloudy
8:55 AM 19.4 °F 8.6 °F 10.4 °F 68% 29.93 in 10.0 mi South 9.2 mph - N/A   Mostly Cloudy
9:51 AM 21.2 °F 7.3 °F 12.2 °F 68% 29.94 in 10.0 mi South 16.1 mph - N/A   Mostly Cloudy
10:51 AM 24.8 °F 14.0 °F 10.4 °F 54% 29.94 in 10.0 mi SSW 11.5 mph 20.7 mph N/A   Mostly Cloudy
11:52 AM 24.8 °F 14.6 °F 15.8 °F 69% 29.93 in 8.0 mi SW 10.4 mph 21.9 mph N/A   Overcast
12:53 PM 26.6 °F 15.2 °F 14.0 °F 59% 29.91 in 7.0 mi SSW 13.8 mph 21.9 mph N/A   Overcast
1:53 PM 26.6 °F 15.2 °F 17.6 °F 69% 29.91 in 7.0 mi SSW 13.8 mph 25.3 mph N/A Snow Light Snow
2:19 PM 24.8 °F 11.9 °F 21.2 °F 86% 29.91 in 2.0 mi South 16.1 mph - N/A Snow Light Snow
2:59 PM 24.8 °F 14.0 °F 21.2 °F 86% 29.89 in 2.0 mi SSW 11.5 mph - N/A Snow Light Snow
3:30 PM 26.6 °F 13.4 °F 23.0 °F 86% 29.88 in 2.0 mi South 18.4 mph - N/A Snow Light Snow
3:54 PM 26.6 °F 13.4 °F 24.8 °F 93% 29.87 in 3.0 mi South 18.4 mph - N/A Snow Light Snow
4:13 PM 24.8 °F 11.5 °F 23.0 °F 93% 29.88 in 1.5 mi South 17.3 mph - N/A Snow Light Snow
4:51 PM 24.8 °F 12.4 °F 24.8 °F 100% 29.88 in 0.8 mi South 15.0 mph - N/A Snow Light Snow
5:58 PM 26.6 °F 15.2 °F 23.0 °F 86% 29.87 in 2.0 mi South 13.8 mph - N/A Snow Light Snow
7:05 PM 28.4 °F 17.5 °F 19.4 °F 69% 29.85 in 5.0 mi South 13.8 mph - N/A Snow Light Snow
7:54 PM 30.2 °F 18.5 °F 17.6 °F 60% 29.86 in 10.0 mi SSW 17.3 mph - N/A   Overcast
8:51 PM 30.2 °F 17.8 °F 15.8 °F 55% 29.88 in 10.0 mi SSW 19.6 mph 26.5 mph N/A   Overcast
8:55 PM 30.2 °F 17.8 °F 15.8 °F 55% 29.88 in 10.0 mi SSW 19.6 mph 26.5 mph N/A   Overcast
9:15 PM 30.2 °F 18.5 °F 15.8 °F 55% 29.89 in 10.0 mi South 17.3 mph 28.8 mph N/A   Overcast
9:35 PM 30.2 °F 19.3 °F 15.8 °F 55% 29.89 in 8.0 mi SSW 15.0 mph 28.8 mph N/A   Overcast
9:55 PM 28.4 °F 17.0 °F 15.8 °F 59% 29.90 in 10.0 mi SSW 15.0 mph 31.1 mph N/A   Mostly Cloudy
10:15 PM 28.4 °F 17.5 °F 14.0 °F 55% 29.90 in 10.0 mi SSW 13.8 mph 27.6 mph N/A   Overcast
10:35 PM 28.4 °F 17.5 °F 14.0 °F 55% 29.92 in 10.0 mi SSW 13.8 mph 24.2 mph N/A   Mostly Cloudy
10:55 PM 28.4 °F 17.5 °F 12.2 °F 51% 29.92 in 10.0 mi SSW 13.8 mph 21.9 mph N/A   Mostly Cloudy
11:15 PM 28.4 °F 19.7 °F 12.2 °F 51% 29.94 in 10.0 mi WSW 9.2 mph - N/A   Mostly Cloudy
11:35 PM 28.4 °F 18.5 °F 12.2 °F 51% 29.95 in 10.0 mi SW 11.5 mph - N/A   Overcast